ASA22 PAGS-PAYA

Flight info

Callsign ASA22
Flight time 0h 43m
Altitude 28000
Route GSTVS2 SSR HAPIT YAK
Aircraft B738/M-SDE2E3FGHIRWXY/LB1

Departure

Time 2026-05-06 06:25
Airport Gustavus Airport (PAGS)

Arrival

Time 2026-05-06 07:08
Airport Yakutat Airport (PAYA)
Time Latitude Longitude Altitude Speed Heading
2026-05-06 06:07 58.42270 -135.70337 35 ft 0 kts 223°
2026-05-06 06:19 58.42273 -135.70330 35 ft 2 kts 208°
2026-05-06 06:19 58.42284 -135.70327 33 ft 0 kts 133°
2026-05-06 06:22 58.42282 -135.70321 33 ft 4 kts 130°
2026-05-06 06:22 58.42279 -135.70171 35 ft 17 kts 66°
2026-05-06 06:22 58.42316 -135.69963 36 ft 17 kts 102°
2026-05-06 06:22 58.42247 -135.69794 37 ft 16 kts 137°
2026-05-06 06:23 58.42167 -135.69645 35 ft 16 kts 135°
2026-05-06 06:23 58.42092 -135.69501 33 ft 15 kts 135°
2026-05-06 06:23 58.42015 -135.69375 33 ft 14 kts 157°
2026-05-06 06:23 58.41935 -135.69345 32 ft 3 kts 108°
2026-05-06 06:24 58.41954 -135.69284 33 ft 9 kts 17°
2026-05-06 06:24 58.42018 -135.69358 32 ft 17 kts 314°
2026-05-06 06:24 58.42282 -135.69865 37 ft 95 kts 315°
2026-05-06 06:24 58.42936 -135.71109 58 ft 166 kts 315°
2026-05-06 06:25 58.43717 -135.72885 844 ft 179 kts 296°
2026-05-06 06:25 58.43986 -135.75159 1956 ft 179 kts 265°
2026-05-06 06:25 58.42841 -135.79837 2889 ft 218 kts 219°
2026-05-06 06:26 58.41439 -135.81151 3329 ft 239 kts 191°
2026-05-06 06:26 58.39754 -135.80842 4108 ft 252 kts 161°
2026-05-06 06:26 58.38353 -135.78773 5034 ft 266 kts 127°
2026-05-06 06:26 58.37683 -135.75422 5927 ft 275 kts 107°
2026-05-06 06:27 58.37196 -135.71864 6770 ft 280 kts 108°
2026-05-06 06:27 58.36688 -135.68215 7563 ft 287 kts 108°
2026-05-06 06:27 58.36174 -135.64500 8378 ft 293 kts 107°
2026-05-06 06:27 58.35561 -135.60814 9147 ft 296 kts 121°
2026-05-06 06:28 58.34312 -135.57738 9962 ft 294 kts 139°
2026-05-06 06:28 58.32844 -135.54905 10519 ft 308 kts 139°
2026-05-06 06:28 58.31127 -135.52259 10692 ft 327 kts 156°
2026-05-06 06:28 58.28969 -135.50571 10902 ft 345 kts 168°
2026-05-06 06:29 58.26554 -135.50051 11029 ft 358 kts 190°
2026-05-06 06:29 58.24194 -135.51466 11386 ft 364 kts 212°
2026-05-06 06:29 58.22224 -135.54460 12029 ft 365 kts 231°
2026-05-06 06:29 58.20919 -135.58565 12804 ft 364 kts 249°
2026-05-06 06:30 58.20387 -135.63256 13577 ft 367 kts 265°
2026-05-06 06:30 58.20330 -135.68120 14278 ft 370 kts 268°
2026-05-06 06:30 58.20363 -135.73034 14888 ft 373 kts 269°
2026-05-06 06:30 58.20422 -135.77979 15557 ft 375 kts 269°
2026-05-06 06:31 58.20477 -135.82873 16210 ft 376 kts 269°
2026-05-06 06:31 58.20521 -135.87840 16835 ft 378 kts 268°
2026-05-06 06:31 58.20552 -135.92840 17424 ft 381 kts 268°
2026-05-06 06:31 58.20572 -135.97887 18046 ft 383 kts 268°
2026-05-06 06:32 58.20585 -136.02955 18608 ft 385 kts 268°
2026-05-06 06:32 58.20593 -136.08051 19117 ft 387 kts 267°
2026-05-06 06:32 58.20597 -136.13187 19599 ft 390 kts 267°
2026-05-06 06:32 58.20598 -136.18353 20082 ft 392 kts 267°
2026-05-06 06:33 58.20596 -136.23537 20557 ft 395 kts 267°
2026-05-06 06:33 58.20593 -136.28762 21033 ft 397 kts 267°
2026-05-06 06:33 58.20587 -136.34015 21511 ft 400 kts 267°
2026-05-06 06:33 58.20579 -136.39300 21956 ft 402 kts 267°
2026-05-06 06:34 58.20569 -136.44563 22392 ft 404 kts 267°
2026-05-06 06:34 58.20557 -136.49921 22821 ft 407 kts 266°
2026-05-06 06:34 58.20542 -136.55310 23298 ft 409 kts 266°
2026-05-06 06:34 58.20526 -136.60722 23707 ft 411 kts 266°
2026-05-06 06:35 58.20507 -136.66096 24026 ft 413 kts 266°
2026-05-06 06:35 58.20485 -136.71563 24348 ft 415 kts 266°
2026-05-06 06:35 58.20461 -136.77058 24662 ft 417 kts 266°
2026-05-06 06:35 58.20434 -136.82575 24979 ft 419 kts 266°
2026-05-06 06:36 58.20405 -136.88121 25283 ft 421 kts 266°
2026-05-06 06:36 58.20374 -136.93694 25596 ft 423 kts 266°
2026-05-06 06:36 58.20340 -136.99271 26009 ft 421 kts 265°
2026-05-06 06:36 58.20305 -137.04798 26584 ft 417 kts 265°
2026-05-06 06:37 58.20269 -137.10212 27083 ft 414 kts 265°
2026-05-06 06:37 58.20228 -137.15677 27481 ft 414 kts 265°
2026-05-06 06:37 58.20185 -137.21156 27826 ft 415 kts 265°
2026-05-06 06:37 58.20139 -137.26632 28119 ft 416 kts 265°
2026-05-06 06:38 58.20092 -137.32162 28102 ft 420 kts 265°
2026-05-06 06:38 58.20018 -137.43231 28109 ft 421 kts 269°
2026-05-06 06:38 58.20589 -137.48659 28112 ft 431 kts 285°
2026-05-06 06:39 58.21908 -137.53807 28108 ft 439 kts 296°
2026-05-06 06:39 58.23847 -137.58370 28106 ft 451 kts 310°
2026-05-06 06:39 58.26238 -137.62269 28115 ft 454 kts 314°
2026-05-06 06:40 58.31188 -137.69777 28098 ft 455 kts 315°
2026-05-06 06:40 58.36143 -137.77287 28101 ft 454 kts 314°
2026-05-06 06:41 58.41029 -137.84847 28115 ft 454 kts 315°
2026-05-06 06:41 58.45937 -137.92537 28108 ft 454 kts 315°
2026-05-06 06:42 58.50821 -138.00233 28098 ft 454 kts 314°
2026-05-06 06:42 58.55667 -138.07897 28090 ft 454 kts 314°
2026-05-06 06:43 58.60535 -138.15621 28094 ft 454 kts 314°
2026-05-06 06:43 58.65400 -138.23368 28095 ft 454 kts 314°
2026-05-06 06:44 58.70246 -138.31180 28078 ft 452 kts 311°
2026-05-06 06:44 58.74404 -138.40065 28093 ft 446 kts 304°
2026-05-06 06:45 58.78344 -138.49199 28088 ft 446 kts 304°
2026-05-06 06:45 58.82337 -138.58374 28089 ft 446 kts 304°
2026-05-06 06:45 58.84348 -138.62954 27859 ft 449 kts 305°
2026-05-06 06:46 58.86385 -138.67587 27039 ft 451 kts 305°
2026-05-06 06:46 58.88418 -138.72197 26151 ft 449 kts 305°
2026-05-06 06:46 58.90446 -138.76799 25222 ft 449 kts 304°
2026-05-06 06:46 58.92469 -138.81400 24493 ft 445 kts 304°
2026-05-06 06:47 58.93790 -138.84404 24044 ft 441 kts 304°
2026-05-06 06:47 58.95770 -138.88918 23317 ft 435 kts 304°
2026-05-06 06:47 58.97715 -138.93367 22564 ft 430 kts 304°
2026-05-06 06:47 58.99634 -138.97765 21896 ft 423 kts 304°
2026-05-06 06:48 59.01520 -139.02099 21249 ft 417 kts 304°
2026-05-06 06:48 59.03339 -139.06371 20622 ft 412 kts 303°
2026-05-06 06:48 59.05161 -139.10651 20011 ft 408 kts 305°
2026-05-06 06:48 59.06968 -139.14819 19357 ft 403 kts 305°
2026-05-06 06:49 59.08796 -139.19049 18319 ft 411 kts 305°
2026-05-06 06:49 59.10636 -139.23313 17414 ft 411 kts 305°
2026-05-06 06:49 59.12467 -139.27556 16759 ft 405 kts 305°
2026-05-06 06:49 59.14265 -139.31727 16128 ft 399 kts 305°
2026-05-06 06:50 59.16024 -139.35815 15900 ft 384 kts 305°
2026-05-06 06:50 59.17705 -139.39723 15785 ft 368 kts 305°
2026-05-06 06:50 59.19315 -139.43474 15686 ft 353 kts 305°
2026-05-06 06:50 59.20858 -139.47081 15594 ft 339 kts 304°
2026-05-06 06:51 59.22322 -139.50511 15500 ft 325 kts 304°
2026-05-06 06:51 59.23729 -139.53810 15286 ft 310 kts 304°
2026-05-06 06:51 59.25111 -139.57067 14644 ft 310 kts 304°
2026-05-06 06:51 59.26482 -139.60306 14118 ft 306 kts 304°
2026-05-06 06:52 59.27833 -139.63501 13552 ft 304 kts 305°
2026-05-06 06:52 59.29148 -139.66609 12939 ft 294 kts 305°
2026-05-06 06:52 59.30424 -139.69624 12340 ft 280 kts 305°
2026-05-06 06:52 59.31644 -139.72508 11750 ft 270 kts 305°
2026-05-06 06:53 59.32820 -139.75296 11183 ft 261 kts 306°
2026-05-06 06:53 59.33969 -139.78025 10537 ft 258 kts 306°
2026-05-06 06:53 59.35120 -139.80767 9780 ft 263 kts 306°
2026-05-06 06:53 59.36292 -139.83564 8924 ft 269 kts 306°
2026-05-06 06:54 59.37495 -139.86434 8006 ft 274 kts 307°
2026-05-06 06:54 59.38694 -139.89294 7123 ft 274 kts 306°
2026-05-06 06:54 59.39913 -139.92205 6251 ft 279 kts 307°
2026-05-06 06:54 59.41145 -139.95148 5450 ft 274 kts 306°
2026-05-06 06:55 59.42337 -139.98000 4780 ft 266 kts 307°
2026-05-06 06:55 59.43495 -140.00776 4084 ft 260 kts 307°
2026-05-06 06:55 59.44617 -140.03463 3409 ft 255 kts 307°
2026-05-06 06:55 59.45729 -140.06134 3072 ft 252 kts 307°
2026-05-06 06:56 59.46836 -140.08795 3011 ft 249 kts 306°
2026-05-06 06:56 59.47927 -140.11418 2976 ft 244 kts 307°
2026-05-06 06:56 59.48997 -140.13998 2971 ft 243 kts 306°
2026-05-06 06:56 59.50062 -140.16568 2963 ft 241 kts 306°
2026-05-06 06:57 59.51106 -140.19090 2963 ft 240 kts 306°
2026-05-06 06:57 59.52184 -140.21589 2962 ft 239 kts 312°
2026-05-06 06:57 59.53487 -140.23616 2960 ft 238 kts 328°
2026-05-06 06:57 59.55011 -140.24716 2982 ft 230 kts 349°
2026-05-06 06:58 59.56564 -140.24619 2883 ft 218 kts 21°
2026-05-06 06:58 59.57643 -140.22778 2902 ft 203 kts 59°
2026-05-06 06:58 59.58482 -140.20499 2851 ft 207 kts 51°
2026-05-06 06:58 59.59506 -140.18551 2765 ft 207 kts 38°
2026-05-06 06:59 59.60721 -140.17030 2695 ft 207 kts 22°
2026-05-06 06:59 59.62071 -140.16087 2638 ft 205 kts 20°
2026-05-06 06:59 59.63392 -140.14964 2586 ft 207 kts 26°
2026-05-06 06:59 59.64667 -140.13647 2448 ft 209 kts 30°
2026-05-06 07:00 59.65951 -140.12165 2041 ft 217 kts 32°
2026-05-06 07:00 59.67205 -140.10580 1774 ft 212 kts 35°
2026-05-06 07:00 59.68367 -140.08890 1774 ft 205 kts 45°
2026-05-06 07:00 59.69045 -140.06514 1785 ft 195 kts 80°
2026-05-06 07:01 59.69128 -140.03952 1771 ft 181 kts 101°
2026-05-06 07:01 59.68663 -140.01770 1766 ft 165 kts 136°
2026-05-06 07:01 59.67924 -140.00137 1766 ft 159 kts 135°
2026-05-06 07:01 59.67186 -139.98482 1807 ft 159 kts 136°
2026-05-06 07:02 59.66490 -139.96940 1800 ft 143 kts 135°
2026-05-06 07:02 59.65841 -139.95487 1781 ft 139 kts 137°
2026-05-06 07:02 59.65179 -139.94098 1775 ft 137 kts 138°
2026-05-06 07:02 59.64516 -139.92756 1764 ft 137 kts 139°
2026-05-06 07:03 59.63843 -139.91419 1779 ft 137 kts 139°
2026-05-06 07:03 59.63177 -139.90103 1778 ft 137 kts 139°
2026-05-06 07:03 59.62496 -139.88767 1773 ft 138 kts 140°
2026-05-06 07:03 59.61816 -139.87432 1778 ft 137 kts 139°
2026-05-06 07:04 59.61137 -139.86099 1776 ft 137 kts 139°
2026-05-06 07:04 59.60458 -139.84768 1774 ft 138 kts 139°
2026-05-06 07:04 59.59776 -139.83429 1781 ft 138 kts 139°
2026-05-06 07:04 59.59101 -139.82105 1773 ft 139 kts 139°
2026-05-06 07:05 59.58418 -139.80764 1778 ft 138 kts 139°
2026-05-06 07:05 59.57740 -139.79433 1778 ft 137 kts 139°
2026-05-06 07:05 59.57054 -139.78090 1736 ft 141 kts 139°
2026-05-06 07:05 59.56363 -139.76727 1552 ft 142 kts 140°
2026-05-06 07:06 59.55660 -139.75350 1372 ft 142 kts 140°
2026-05-06 07:06 59.54980 -139.74011 1182 ft 139 kts 140°
2026-05-06 07:06 59.54307 -139.72689 976 ft 133 kts 140°
2026-05-06 07:06 59.53633 -139.71379 785 ft 138 kts 140°
2026-05-06 07:07 59.52945 -139.70083 608 ft 134 kts 133°
2026-05-06 07:07 59.52301 -139.68846 376 ft 127 kts 138°
2026-05-06 07:07 59.51698 -139.67647 281 ft 119 kts 130°
2026-05-06 07:07 59.51120 -139.66465 96 ft 122 kts 133°
2026-05-06 07:08 59.50571 -139.65379 49 ft 95 kts 136°
2026-05-06 07:08 59.50208 -139.64671 53 ft 52 kts 135°
2026-05-06 07:08 59.50004 -139.64274 50 ft 39 kts 134°
2026-05-06 07:08 59.49826 -139.63924 51 ft 33 kts 135°
2026-05-06 07:09 59.49680 -139.63653 58 ft 17 kts 143°
2026-05-06 07:09 59.49639 -139.63593 57 ft 1 kts 127°
2026-05-06 07:09 59.49662 -139.63585 56 ft 10 kts 330°
2026-05-06 07:09 59.49751 -139.63777 59 ft 28 kts 315°
2026-05-06 07:10 59.49934 -139.64134 53 ft 46 kts 315°
2026-05-06 07:10 59.50185 -139.64627 51 ft 54 kts 315°
2026-05-06 07:10 59.50451 -139.65152 50 ft 52 kts 315°
2026-05-06 07:10 59.50695 -139.65627 52 ft 46 kts 315°
2026-05-06 07:11 59.50852 -139.66004 47 ft 29 kts 268°
2026-05-06 07:11 59.50872 -139.66376 49 ft 27 kts 298°
2026-05-06 07:11 59.50910 -139.66688 48 ft 26 kts 225°
2026-05-06 07:11 59.50842 -139.66828 46 ft 0 kts 226°